Погода в Маларгуэ

Аргентина     35°28′05″S   69°35′09″W
темп.,
°C
ветер,
м/с
пор.,
м/с
влажн.,
%
обл.,
%
осадки,
мм/ч
давл.,
гПа
погр.,
м
12 апреля, пн
пн1200:00+11в22410 0.0 101810
03:00+10юв22450 0.0 101710
06:00+9ююв01470 0.0 101710
09:00+11з00440 0.0 101810
12:00+17всв11250 0.0 1017348
15:00+21вюв22180 0.0 1014765
18:00+22в11160 0.0 1014890
21:00+17ссв11260 0.0 101611
13 апреля, вт
вт1300:00+14св11410 0.0 101910
03:00+12ююз00440 0.0 101811
06:00+11з11450 0.0 101711
09:00+13ссв11450 0.0 101810
12:00+18св11280 0.0 1017566
15:00+22ссв24200 0.0 10141341
18:00+23св45180 0.0 10121465
21:00+16св46350 0.0 1015107
14 апреля, ср
ср1400:00+14ююв22430 0.0 101517
03:00+13ююв23471 0.0 101415
06:00+11юв11540 0.0 101210
09:00+13зсз004640 0.0 101211
12:00+19в112289 0.0 1011368
15:00+24св13140 0.0 10081177
18:00+25зюз35132 0.0 1007569
21:00+19ссв12221 0.0 101120
15 апреля, чт
чт1500:00+16з22450 0.0 101311
03:00+14вюв01480 0.0 101311
06:00+13с00500 0.0 101311
09:00+14всв11520 0.0 101411
12:00+19св23360 0.0 1014824
15:00+22св33250 0.0 10101500
18:00+22всв65260 0.0 1009950
21:00+17с11450 0.0 101214
16 апреля, пт
пт1600:00+16ю11502 0.0 101411
03:00+14юв11586 0.0 101411
06:00+12ю1164100 0.0 101411
09:00+14юз0153100 0.0 101611
12:00+18всв12465 0.0 1016730
15:00+21св23320 0.0 10131732
18:00+22ссв33270 0.0 10122044
21:00+17св49555 0.4 1015258